| time (UTC) | temp F | wind direction | speed MPH | gust MPH | rain 1hr in | rain 24hr in | rain mn in | humidity % | barometer mb |
| 20260504081502 | 65 | 280 | 7.0 | 0.0 | 0.00 | 0.00 | 0.00 | 62 | 1007.0 |
| 20260504050002 | 61 | 230 | 4.0 | 0.0 | 0.00 | 0.00 | 0.00 | 63 | 1005.9 |
| 20260504044502 | 61 | 230 | 1.0 | 0.0 | 0.00 | 0.00 | 0.00 | 63 | 1005.5 |
| 20260504043003 | 61 | 230 | 1.0 | 0.0 | 0.00 | 0.00 | 0.00 | 63 | 1005.5 |
| 20260504041502 | 62 | 250 | 1.0 | 0.0 | 0.00 | 0.00 | 0.00 | 61 | 1005.8 |
| 20260504040002 | 62 | 250 | 1.0 | 0.0 | 0.00 | 0.00 | 0.00 | 61 | 1005.8 |
| 20260504034502 | 63 | 250 | 3.0 | 0.0 | 0.00 | 0.00 | 0.00 | 52 | 1006.0 |
| 20260504033002 | 63 | 250 | 3.0 | 0.0 | 0.00 | 0.00 | 0.00 | 52 | 1006.0 |
| 20260504031502 | 64 | 240 | 3.0 | 0.0 | 0.00 | 0.00 | 0.00 | 51 | 1006.1 |
| 20260504030003 | 64 | 240 | 3.0 | 0.0 | 0.00 | 0.00 | 0.00 | 51 | 1006.1 |
| 20260503204502 | 72 | 290 | 5.0 | 0.0 | 0.00 | 0.00 | 0.00 | 37 | 1004.7 |
| 20260503203002 | 72 | 270 | 7.0 | 0.0 | 0.00 | 0.00 | 0.00 | 37 | 1004.7 |
| 20260503201502 | 71 | 210 | 2.0 | 0.0 | 0.00 | 0.00 | 0.00 | 40 | 1004.4 |
| 20260503200002 | 71 | 210 | 2.0 | 0.0 | 0.00 | 0.00 | 0.00 | 40 | 1004.4 |
| 20260503194502 | 70 | 210 | 2.0 | 0.0 | 0.00 | 0.00 | 0.00 | 43 | 1004.3 |
| 20260503193002 | 70 | 240 | 1.0 | 0.0 | 0.00 | 0.00 | 0.00 | 43 | 1004.3 |
| 20260503191502 | 75 | 200 | 2.0 | 0.0 | 0.00 | 0.00 | 0.00 | 32 | 1004.1 |
| 20260503190002 | 75 | 200 | 2.0 | 0.0 | 0.00 | 0.00 | 0.00 | 32 | 1004.1 |
| 20260503184502 | 77 | 200 | 2.0 | 0.0 | 0.00 | 0.00 | 0.00 | 29 | 1004.1 |
| 20260503183002 | 77 | 240 | 3.0 | 0.0 | 0.00 | 0.00 | 0.00 | 29 | 1004.1 |
| 20260503181502 | 79 | 240 | 3.0 | 0.0 | 0.00 | 0.00 | 0.00 | 26 | 1004.1 |
| 20260503180002 | 79 | 230 | 5.0 | 0.0 | 0.00 | 0.00 | 0.00 | 26 | 1004.1 |
| 20260503174502 | 80 | 230 | 5.0 | 0.0 | 0.00 | 0.00 | 0.00 | 24 | 1004.2 |
| 20260503173002 | 80 | 230 | 6.0 | 0.0 | 0.00 | 0.00 | 0.00 | 24 | 1004.2 |
| 20260503171502 | 81 | 220 | 7.0 | 0.0 | 0.00 | 0.00 | 0.00 | 24 | 1004.3 |